Date String (YYYY-MM-DD hh:mm:ss) UTC,Instrument flags,Ambient pressure (hPa),Sample flow (lpm),Bypass flow (lpm),Sample temperature (°C),Ambient temperature (°C),ASC tube jacket temperature (°C),LED temperature (°C),Box temperature (°C),Sample RH (%),Span deviation,Mass concentration (μg/m³),Mass concentration (μg/m³),Mass concentration (μg/m³)
DateTimeUTC,F1_M11,P_M11,Q1_M11,Q2_M11,T1_M11,T2_M11,T3_M11,T4_M11,T5_M11,U1_M11,ZSPAN_M11,X0_M11,X2_M11,X1_M11
2023-04-10 17:00:00,,0838.8,5.00,0.00,25.3,24.0,00.0,33.4,27.0,13.9,0000.0,0013.02,0005.24,0003.60
2023-04-10 17:01:00,,0838.8,5.00,0.00,25.3,24.0,00.0,33.5,27.0,13.7,0000.0,0012.80,0005.15,0003.56
2023-04-10 17:02:00,,0838.8,5.00,0.00,25.3,24.0,00.0,33.5,27.0,13.7,0000.0,0012.50,0005.11,0003.51
2023-04-10 17:03:00,,0838.8,5.00,0.00,25.3,24.0,00.0,33.5,27.0,13.5,0000.0,0012.31,0005.08,0003.47
2023-04-10 17:04:00,,0838.8,5.01,0.00,25.3,24.0,00.0,33.5,27.0,13.4,0000.0,0012.09,0004.98,0003.43
2023-04-10 17:05:00,,0838.8,5.00,0.00,25.3,24.0,00.0,33.5,27.0,13.5,0000.0,0011.85,0004.90,0003.39
2023-04-10 17:06:00,,0838.8,4.99,0.00,25.3,24.1,00.0,33.5,27.0,13.1,0000.0,0011.59,0004.84,0003.37
2023-04-10 17:07:00,,0838.8,5.01,0.00,25.3,24.1,00.0,33.5,27.0,13.0,0000.0,0011.66,0004.83,0003.33
2023-04-10 17:08:00,,0838.8,5.00,0.00,25.4,24.1,00.0,33.6,27.0,13.2,0000.0,0011.26,0004.80,0003.30
2023-04-10 17:09:00,,0838.9,5.01,0.00,25.4,24.1,00.0,33.6,27.0,12.7,0000.0,0011.18,0004.76,0003.28
2023-04-10 17:10:00,,0838.8,5.00,0.00,25.4,24.1,00.0,33.6,27.0,12.7,0000.0,0010.97,0004.73,0003.25
2023-04-10 17:11:00,,0838.9,5.01,0.00,25.4,24.1,00.0,33.6,27.1,12.7,0000.0,0011.34,0004.73,0003.24
2023-04-10 17:12:00,,0838.8,5.01,0.00,25.4,24.1,00.0,33.6,27.1,12.6,0000.0,0011.64,0004.77,0003.24
2023-04-10 17:13:00,,0838.9,4.99,0.00,25.4,24.1,00.0,33.6,27.1,12.8,0000.0,0011.65,0004.75,0003.24
2023-04-10 17:14:00,,0838.9,4.99,0.00,25.4,24.2,00.0,33.6,27.1,12.7,0000.0,0011.45,0004.74,0003.24
2023-04-10 17:15:00,,0838.9,5.00,0.00,25.4,24.2,00.0,33.6,27.1,12.4,0000.0,0011.49,0004.74,0003.23
2023-04-10 17:16:00,,0838.8,5.01,0.00,25.4,24.2,00.0,33.7,27.1,12.1,0000.0,0011.87,0004.77,0003.21
2023-04-10 17:17:00,,0838.8,5.01,0.00,25.4,24.2,00.0,33.7,27.1,12.1,0000.0,0012.97,0004.79,0003.20
2023-04-10 17:18:00,,0838.8,5.00,0.00,25.5,24.2,00.0,33.7,27.1,12.2,0000.0,0012.86,0004.76,0003.19
2023-04-10 17:19:00,,0838.8,5.00,0.00,25.5,24.2,00.0,33.7,27.1,12.4,0000.0,0012.65,0004.75,0003.17
2023-04-10 17:20:00,,0838.8,5.00,0.00,25.5,24.2,00.0,33.7,27.1,12.2,0000.0,0012.23,0004.73,0003.15
2023-04-10 17:21:00,,0838.9,5.00,0.00,25.5,24.2,00.0,33.7,27.2,12.5,0000.0,0012.01,0004.72,0003.14
2023-04-10 17:22:00,,0838.8,5.01,0.00,25.5,24.2,00.0,33.7,27.2,12.2,0000.0,0011.67,0004.65,0003.13
2023-04-10 17:23:00,,0838.8,5.01,0.00,25.5,24.2,00.0,33.7,27.2,12.2,0000.0,0011.41,0004.63,0003.11
2023-04-10 17:24:00,,0838.9,5.00,0.00,25.5,24.3,00.0,33.7,27.2,12.2,0000.0,0012.12,0004.64,0003.10
2023-04-10 17:25:00,,0838.8,4.99,0.00,25.6,24.3,00.0,33.8,27.2,12.0,0000.0,0012.36,0004.63,0003.10
2023-04-10 17:26:00,,0838.8,5.00,0.00,25.6,24.3,00.0,33.8,27.2,12.4,0000.0,0012.67,0004.61,0003.09
2023-04-10 17:27:00,,0838.8,5.00,0.00,25.6,24.3,00.0,33.8,27.2,12.8,0000.0,0013.52,0004.64,0003.10
2023-04-10 17:28:00,,0838.8,5.01,0.00,25.6,24.3,00.0,33.8,27.2,13.1,0000.0,0012.61,0004.66,0003.12
2023-04-10 17:29:00,,0838.8,5.01,0.00,25.6,24.3,00.0,33.8,27.3,13.0,0000.0,0012.89,0004.71,0003.14
2023-04-10 17:30:00,,0838.8,5.00,0.00,25.6,24.3,00.0,33.8,27.3,12.8,0000.0,0013.08,0004.76,0003.17
2023-04-10 17:31:00,,0838.8,5.00,0.00,25.6,24.4,00.0,33.8,27.3,12.9,0000.0,0013.56,0004.83,0003.20
2023-04-10 17:32:00,,0838.8,5.00,0.00,25.6,24.4,00.0,33.9,27.3,12.6,0000.0,0013.73,0004.89,0003.24
2023-04-10 17:33:00,,0838.8,5.00,0.00,25.7,24.4,00.0,33.9,27.3,12.7,0000.0,0014.31,0005.06,0003.27
2023-04-10 17:34:00,,0838.8,5.01,0.00,25.7,24.4,00.0,33.9,27.4,13.1,0000.0,0014.40,0005.11,0003.31
2023-04-10 17:35:00,,0838.8,4.99,0.00,25.7,24.4,00.0,33.9,27.4,13.5,0000.0,0013.84,0005.19,0003.37
2023-04-10 17:36:00,,0838.8,5.00,0.00,25.7,24.4,00.0,33.9,27.4,13.5,0000.0,0013.69,0005.21,0003.42
2023-04-10 17:37:00,,0838.8,5.00,0.00,25.7,24.5,00.0,33.9,27.4,13.5,0000.0,0013.64,0005.27,0003.46
2023-04-10 17:38:00,,0838.8,5.00,0.00,25.7,24.5,00.0,33.9,27.5,13.5,0000.0,0013.20,0005.31,0003.50
2023-04-10 17:39:00,,0838.8,4.99,0.00,25.7,24.5,00.0,33.9,27.5,13.5,0000.0,0013.19,0005.31,0003.52
2023-04-10 17:40:00,,0838.8,4.99,0.00,25.8,24.5,00.0,34.0,27.5,12.7,0000.0,0013.40,0005.31,0003.53
2023-04-10 17:41:00,,0838.8,4.99,0.00,25.8,24.6,00.0,34.0,27.5,12.9,0000.0,0013.92,0005.29,0003.55
2023-04-10 17:42:00,,0838.8,5.01,0.00,25.8,24.6,00.0,34.0,27.5,12.9,0000.0,0014.14,0005.27,0003.55
2023-04-10 17:43:00,,0838.8,5.00,0.00,25.8,24.6,00.0,34.0,27.5,12.5,0000.0,0014.55,0005.33,0003.54
2023-04-10 17:44:00,,0838.8,5.00,0.00,25.8,24.6,00.0,34.0,27.5,12.5,0000.0,0014.74,0005.24,0003.54
2023-04-10 17:45:00,,0838.8,5.00,0.00,25.8,24.6,00.0,34.0,27.5,12.7,0000.0,0014.63,0005.20,0003.54
2023-04-10 17:46:00,,0838.8,5.00,0.00,25.9,24.6,00.0,34.0,27.5,12.9,0000.0,0014.61,0005.18,0003.51
2023-04-10 17:47:00,,0838.7,5.00,0.00,25.9,24.6,00.0,34.1,27.6,13.0,0000.0,0014.38,0005.13,0003.50
2023-04-10 17:48:00,,0838.8,5.00,0.00,25.9,24.7,00.0,34.1,27.6,13.2,0000.0,0014.61,0005.17,0003.51
2023-04-10 17:49:00,,0838.8,4.99,0.00,25.9,24.7,00.0,34.1,27.6,13.1,0000.0,0014.27,0005.13,0003.50
2023-04-10 17:50:00,,0838.8,5.00,0.00,25.9,24.7,00.0,34.1,27.6,13.2,0000.0,0013.84,0005.12,0003.49
2023-04-10 17:51:00,,0838.8,5.00,0.00,25.9,24.7,00.0,34.1,27.6,13.2,0000.0,0013.41,0005.13,0003.51
2023-04-10 17:52:00,,0838.8,5.01,0.00,26.0,24.7,00.0,34.1,27.7,13.1,0000.0,0012.64,0005.11,0003.52
2023-04-10 17:53:00,,0838.7,5.00,0.00,26.0,24.7,00.0,34.2,27.7,12.5,0000.0,0011.93,0005.10,0003.52
2023-04-10 17:54:00,,0838.8,5.00,0.00,26.0,24.8,00.0,34.2,27.7,12.3,0000.0,0011.42,0005.02,0003.51
2023-04-10 17:55:00,,0838.7,4.99,0.00,26.0,24.8,00.0,34.2,27.7,12.6,0000.0,0010.78,0004.98,0003.50
2023-04-10 17:56:00,,0838.7,4.99,0.00,26.0,24.8,00.0,34.2,27.7,12.3,0000.0,0010.82,0005.01,0003.49
2023-04-10 17:57:00,,0838.7,4.99,0.00,26.0,24.8,00.0,34.2,27.7,12.1,0000.0,0010.80,0005.03,0003.48
2023-04-10 17:58:00,,0838.7,5.00,0.00,26.0,24.8,00.0,34.2,27.7,12.2,0000.0,0010.90,0005.03,0003.45
2023-04-10 17:59:00,,0838.7,4.99,0.00,26.0,24.8,00.0,34.2,27.7,12.2,0000.0,0010.54,0004.95,0003.42
